Time,TemperatureF,DewpointF,PressureIn,WindDirection,WindDirectionDegrees,WindSpeedMPH,WindSpeedGustMPH,Humidity,HourlyPrecipIn,Conditions,Clouds,dailyrainin,SoftwareType,DateUTC
2013-01-06 00:02:00,10.9,-4.5,29.74,North,0,0.0,0.0,49,0.00,,---,0.00,VWS V14.01,2013-01-06 05:02:00,
2013-01-06 00:05:00,10.9,-4.5,29.74,North,0,0.0,0.0,49,0.00,,---,0.00,VWS V14.01,2013-01-06 05:05:00,
2013-01-06 00:07:00,11.1,-4.3,29.74,North,0,0.0,0.0,49,0.00,,---,0.00,VWS V14.01,2013-01-06 05:07:00,
2013-01-06 00:11:00,10.8,-4.6,29.74,North,0,0.0,0.0,49,0.00,,---,0.00,VWS V14.01,2013-01-06 05:11:00,
2013-01-06 00:16:00,10.8,-4.6,29.74,North,0,0.0,0.0,49,0.00,,---,0.00,VWS V14.01,2013-01-06 05:16:00,
2013-01-06 00:21:00,10.6,-4.8,29.74,North,0,0.0,0.0,49,0.00,,---,0.00,VWS V14.01,2013-01-06 05:21:00,
2013-01-06 00:26:00,10.4,-5.0,29.74,North,0,0.0,0.0,49,0.00,,---,0.00,VWS V14.01,2013-01-06 05:26:00,
2013-01-06 00:31:00,10.4,-5.0,29.74,North,0,0.0,0.0,49,0.00,,---,0.00,VWS V14.01,2013-01-06 05:31:00,
2013-01-06 00:36:00,10.0,-5.3,29.74,North,0,0.0,0.0,49,0.00,,---,0.00,VWS V14.01,2013-01-06 05:36:00,
2013-01-06 00:41:00,10.0,-5.3,29.71,North,0,0.0,0.0,49,0.00,,---,0.00,VWS V14.01,2013-01-06 05:41:00,
2013-01-06 00:46:00,10.2,-5.1,29.71,North,0,0.0,0.0,49,0.00,,---,0.00,VWS V14.01,2013-01-06 05:46:00,
2013-01-06 00:51:00,10.0,-5.3,29.71,North,0,0.0,0.0,49,0.00,,---,0.00,VWS V14.01,2013-01-06 05:51:00,
2013-01-06 00:56:00,10.0,-5.3,29.71,North,0,0.0,0.0,49,0.00,,---,0.00,VWS V14.01,2013-01-06 05:56:00,
2013-01-06 01:01:00,10.4,-5.0,29.71,North,0,0.0,0.0,49,0.00,,---,0.00,VWS V14.01,2013-01-06 06:01:00,
2013-01-06 01:06:00,10.4,-5.0,29.71,North,0,0.0,0.0,49,0.00,,---,0.00,VWS V14.01,2013-01-06 06:06:00,
2013-01-06 01:11:00,10.4,-5.0,29.71,North,0,0.0,0.0,49,0.00,,---,0.00,VWS V14.01,2013-01-06 06:11:00,
2013-01-06 01:16:00,10.2,-5.1,29.71,North,0,0.0,0.0,49,0.00,,---,0.00,VWS V14.01,2013-01-06 06:16:00,
2013-01-06 01:21:00,10.0,-5.3,29.71,North,0,0.0,0.0,49,0.00,,---,0.00,VWS V14.01,2013-01-06 06:21:00,
2013-01-06 01:26:00,9.7,-5.6,29.71,North,0,0.0,0.0,49,0.00,,---,0.00,VWS V14.01,2013-01-06 06:26:00,
2013-01-06 01:31:00,10.0,-5.3,29.71,North,0,0.0,0.0,49,0.00,,---,0.00,VWS V14.01,2013-01-06 06:31:00,
2013-01-06 01:37:00,10.2,-5.1,29.71,North,0,0.0,0.0,49,0.00,,---,0.00,VWS V14.01,2013-01-06 06:37:00,
2013-01-06 01:42:00,10.2,-5.1,29.71,North,0,0.0,0.0,49,0.00,,---,0.00,VWS V14.01,2013-01-06 06:42:00,
2013-01-06 01:47:00,10.4,-5.0,29.71,North,0,0.0,0.0,49,0.00,,---,0.00,VWS V14.01,2013-01-06 06:47:00,
2013-01-06 01:52:00,10.4,-5.0,29.71,North,0,0.0,0.0,49,0.00,,---,0.00,VWS V14.01,2013-01-06 06:52:00,
2013-01-06 01:58:00,10.6,-4.8,29.71,North,0,0.0,0.0,49,0.00,,---,0.00,VWS V14.01,2013-01-06 06:58:00,
2013-01-06 02:04:00,10.4,-5.0,29.71,North,0,0.0,0.0,49,0.00,,---,0.00,VWS V14.01,2013-01-06 07:04:00,
2013-01-06 02:09:00,10.4,-5.0,29.71,North,0,0.0,0.0,49,0.00,,---,0.00,VWS V14.01,2013-01-06 07:09:00,
2013-01-06 02:14:00,10.6,-4.8,29.71,North,0,0.0,0.0,49,0.00,,---,0.00,VWS V14.01,2013-01-06 07:14:00,
2013-01-06 02:19:00,10.8,-4.6,29.71,North,0,0.0,0.0,49,0.00,,---,0.00,VWS V14.01,2013-01-06 07:19:00,
2013-01-06 02:24:00,10.9,-4.5,29.71,North,0,0.0,0.0,49,0.00,,---,0.00,VWS V14.01,2013-01-06 07:24:00,
2013-01-06 02:29:00,10.9,-4.5,29.71,North,0,0.0,0.0,49,0.00,,---,0.00,VWS V14.01,2013-01-06 07:29:00,
2013-01-06 02:34:00,10.9,-4.5,29.71,North,0,0.0,0.0,49,0.00,,---,0.00,VWS V14.01,2013-01-06 07:34:00,
2013-01-06 02:39:00,11.1,-4.3,29.71,North,0,0.0,0.0,49,0.00,,---,0.00,VWS V14.01,2013-01-06 07:39:00,
2013-01-06 02:44:00,11.3,-4.1,29.71,North,0,0.0,0.0,49,0.00,,---,0.00,VWS V14.01,2013-01-06 07:44:00,
2013-01-06 02:49:00,11.3,-4.1,29.71,North,0,0.0,0.0,49,0.00,,---,0.00,VWS V14.01,2013-01-06 07:49:00,
2013-01-06 02:54:00,11.7,-3.8,29.71,North,0,0.0,0.0,49,0.00,,---,0.00,VWS V14.01,2013-01-06 07:54:00,
2013-01-06 03:00:00,12.0,-3.5,29.71,North,0,0.0,0.0,49,0.00,,---,0.00,VWS V14.01,2013-01-06 08:00:00,
2013-01-06 03:05:00,11.8,-3.6,29.71,North,0,0.0,0.0,49,0.00,,---,0.00,VWS V14.01,2013-01-06 08:05:00,
2013-01-06 03:10:00,12.0,-3.5,29.71,North,0,0.0,0.0,49,0.00,,---,0.00,VWS V14.01,2013-01-06 08:10:00,
2013-01-06 03:15:00,12.2,-3.3,29.71,North,0,0.0,0.0,49,0.00,,---,0.00,VWS V14.01,2013-01-06 08:15:00,
2013-01-06 03:20:00,12.2,-3.3,29.71,North,0,0.0,0.0,49,0.00,,---,0.00,VWS V14.01,2013-01-06 08:20:00,
2013-01-06 03:25:00,12.2,-3.3,29.68,North,0,0.0,0.0,49,0.00,,---,0.00,VWS V14.01,2013-01-06 08:25:00,
2013-01-06 03:31:00,12.2,-3.3,29.68,North,0,0.0,0.0,49,0.00,,---,0.00,VWS V14.01,2013-01-06 08:31:00,
2013-01-06 03:35:00,12.2,-3.3,29.68,North,0,0.0,0.0,49,0.00,,---,0.00,VWS V14.01,2013-01-06 08:35:00,
2013-01-06 03:40:00,12.2,-3.3,29.68,North,0,0.0,0.0,49,0.00,,---,0.00,VWS V14.01,2013-01-06 08:40:00,
2013-01-06 03:45:00,12.2,-3.3,29.68,North,0,0.0,0.0,49,0.00,,---,0.00,VWS V14.01,2013-01-06 08:45:00,
2013-01-06 03:50:00,12.2,-3.3,29.68,North,0,0.0,0.0,49,0.00,,---,0.00,VWS V14.01,2013-01-06 08:50:00,
2013-01-06 03:55:00,12.2,-3.3,29.68,North,0,0.0,0.0,49,0.00,,---,0.00,VWS V14.01,2013-01-06 08:55:00,
2013-01-06 04:01:00,12.2,-3.3,29.68,North,0,0.0,0.0,49,0.00,,---,0.00,VWS V14.01,2013-01-06 09:01:00,
2013-01-06 04:06:00,12.4,-3.1,29.68,North,0,0.0,0.0,49,0.00,,---,0.00,VWS V14.01,2013-01-06 09:06:00,
2013-01-06 04:11:00,12.6,-3.0,29.68,North,0,0.0,0.0,49,0.00,,---,0.00,VWS V14.01,2013-01-06 09:11:00,
2013-01-06 04:16:00,12.7,-2.8,29.68,North,0,0.0,0.0,49,0.00,,---,0.00,VWS V14.01,2013-01-06 09:16:00,
2013-01-06 04:21:00,12.7,-2.8,29.68,North,0,0.0,0.0,49,0.00,,---,0.00,VWS V14.01,2013-01-06 09:21:00,
2013-01-06 04:26:00,12.7,-2.8,29.68,North,0,0.0,0.0,49,0.00,,---,0.00,VWS V14.01,2013-01-06 09:26:00,
2013-01-06 04:31:00,12.7,-2.8,29.68,North,0,0.0,0.0,49,0.00,,---,0.00,VWS V14.01,2013-01-06 09:31:00,
2013-01-06 04:36:00,12.7,-2.8,29.68,North,0,0.0,0.0,49,0.00,,---,0.00,VWS V14.01,2013-01-06 09:36:00,
2013-01-06 04:41:00,12.9,-2.6,29.68,North,0,0.0,0.0,49,0.00,,---,0.00,VWS V14.01,2013-01-06 09:41:00,
2013-01-06 04:46:00,12.9,-2.6,29.68,North,0,0.0,0.0,49,0.00,,---,0.00,VWS V14.01,2013-01-06 09:46:00,
2013-01-06 04:51:00,12.9,-2.6,29.68,North,0,0.0,0.0,49,0.00,,---,0.00,VWS V14.01,2013-01-06 09:51:00,
2013-01-06 04:56:00,13.1,-2.5,29.65,North,0,0.0,0.0,49,0.00,,---,0.00,VWS V14.01,2013-01-06 09:56:00,
2013-01-06 05:01:00,13.3,-2.3,29.65,North,0,0.0,0.0,49,0.00,,---,0.00,VWS V14.01,2013-01-06 10:01:00,
2013-01-06 05:06:00,13.3,-2.3,29.65,North,0,0.0,0.0,49,0.00,,---,0.00,VWS V14.01,2013-01-06 10:06:00,
2013-01-06 05:11:00,13.3,-2.3,29.65,North,0,0.0,0.0,49,0.00,,---,0.00,VWS V14.01,2013-01-06 10:11:00,
2013-01-06 05:16:00,13.3,-2.3,29.65,North,0,0.0,0.0,49,0.00,,---,0.00,VWS V14.01,2013-01-06 10:16:00,
2013-01-06 05:21:00,13.5,-2.1,29.65,North,0,0.0,0.0,49,0.00,,---,0.00,VWS V14.01,2013-01-06 10:21:00,
2013-01-06 05:26:00,13.5,-2.1,29.65,North,0,0.0,0.0,49,0.00,,---,0.00,VWS V14.01,2013-01-06 10:26:00,
2013-01-06 05:32:00,13.5,-2.1,29.65,North,0,0.0,0.0,49,0.00,,---,0.00,VWS V14.01,2013-01-06 10:32:00,
2013-01-06 05:37:00,13.5,-2.1,29.65,North,0,0.0,0.0,49,0.00,,---,0.00,VWS V14.01,2013-01-06 10:37:00,
2013-01-06 05:42:00,13.6,-2.0,29.62,North,0,0.0,0.0,49,0.00,,---,0.00,VWS V14.01,2013-01-06 10:42:00,
2013-01-06 05:48:00,13.6,-2.0,29.62,North,0,0.0,0.0,49,0.00,,---,0.00,VWS V14.01,2013-01-06 10:48:00,
2013-01-06 05:53:00,13.8,-1.8,29.62,North,0,0.0,0.0,49,0.00,,---,0.00,VWS V14.01,2013-01-06 10:53:00,
2013-01-06 05:58:00,13.8,-1.8,29.65,North,0,0.0,0.0,49,0.00,,---,0.00,VWS V14.01,2013-01-06 10:58:00,
2013-01-06 06:03:00,13.8,-1.8,29.65,North,0,0.0,0.0,49,0.00,,---,0.00,VWS V14.01,2013-01-06 11:03:00,
2013-01-06 06:08:00,14.0,3.4,29.62,North,0,0.0,0.0,62,0.00,,---,0.00,VWS V14.01,2013-01-06 11:08:00,
2013-01-06 06:13:00,14.0,3.4,29.62,North,0,0.0,0.0,62,0.00,,---,0.00,VWS V14.01,2013-01-06 11:13:00,
2013-01-06 06:18:00,14.0,3.4,29.62,North,0,0.0,0.0,62,0.00,,---,0.00,VWS V14.01,2013-01-06 11:18:00,
2013-01-06 06:24:00,14.2,3.2,29.62,North,0,0.0,0.0,61,0.00,,---,0.00,VWS V14.01,2013-01-06 11:24:00,
2013-01-06 06:30:00,14.2,3.2,29.62,North,0,0.0,0.0,61,0.00,,---,0.00,VWS V14.01,2013-01-06 11:30:00,
2013-01-06 06:35:00,14.2,3.6,29.62,North,0,0.0,0.0,62,0.00,,---,0.00,VWS V14.01,2013-01-06 11:35:00,
2013-01-06 06:41:00,14.2,3.6,29.62,North,0,0.0,0.0,62,0.00,,---,0.00,VWS V14.01,2013-01-06 11:41:00,
2013-01-06 06:46:00,14.4,3.7,29.62,North,0,0.0,0.0,62,0.00,,---,0.00,VWS V14.01,2013-01-06 11:46:00,
2013-01-06 06:52:00,14.4,3.7,29.62,North,0,0.0,0.0,62,0.00,,---,0.00,VWS V14.01,2013-01-06 11:52:00,
2013-01-06 06:57:00,14.4,3.7,29.62,North,0,0.0,0.0,62,0.00,,---,0.00,VWS V14.01,2013-01-06 11:57:00,
2013-01-06 07:02:00,14.2,3.6,29.62,North,0,0.0,0.0,62,0.00,,---,0.00,VWS V14.01,2013-01-06 12:02:00,
2013-01-06 07:08:00,14.2,3.6,29.62,North,0,0.0,0.0,62,0.00,,---,0.00,VWS V14.01,2013-01-06 12:08:00,
2013-01-06 07:13:00,14.2,3.6,29.59,North,0,0.0,0.0,62,0.00,,---,0.00,VWS V14.01,2013-01-06 12:13:00,
2013-01-06 07:18:00,14.2,3.6,29.59,North,0,0.0,0.0,62,0.00,,---,0.00,VWS V14.01,2013-01-06 12:18:00,
2013-01-06 07:23:00,14.2,3.6,29.59,North,0,0.0,0.0,62,0.00,,---,0.00,VWS V14.01,2013-01-06 12:23:00,
2013-01-06 07:29:00,13.8,3.2,29.59,North,0,0.0,0.0,62,0.00,,---,0.00,VWS V14.01,2013-01-06 12:29:00,
2013-01-06 07:34:00,14.0,3.4,29.59,North,0,0.0,0.0,62,0.00,,---,0.00,VWS V14.01,2013-01-06 12:34:00,
2013-01-06 07:39:00,14.2,3.6,29.59,North,0,0.0,0.0,62,0.00,,---,0.00,VWS V14.01,2013-01-06 12:39:00,
2013-01-06 07:44:00,14.4,3.7,29.59,North,0,0.0,0.0,62,0.00,,---,0.00,VWS V14.01,2013-01-06 12:44:00,
2013-01-06 07:49:00,14.4,3.7,29.59,North,0,0.0,0.0,62,0.00,,---,0.00,VWS V14.01,2013-01-06 12:49:00,
2013-01-06 07:55:00,14.5,3.9,29.56,North,0,0.0,0.0,62,0.00,,---,0.00,VWS V14.01,2013-01-06 12:55:00,
2013-01-06 08:00:00,14.9,4.2,29.56,North,0,0.0,0.0,62,0.00,,---,0.00,VWS V14.01,2013-01-06 13:00:00,
2013-01-06 08:05:00,15.1,4.4,29.56,North,0,0.0,0.0,62,0.00,,---,0.00,VWS V14.01,2013-01-06 13:05:00,
2013-01-06 08:10:00,15.3,4.6,29.56,North,0,0.0,0.0,62,0.00,,---,0.00,VWS V14.01,2013-01-06 13:10:00,
2013-01-06 08:16:00,15.4,4.8,29.56,North,0,0.0,0.0,62,0.00,,---,0.00,VWS V14.01,2013-01-06 13:16:00,
2013-01-06 08:21:00,15.4,4.4,29.56,North,0,0.0,0.0,61,0.00,,---,0.00,VWS V14.01,2013-01-06 13:21:00,
2013-01-06 08:26:00,15.4,4.4,29.56,North,0,0.0,0.0,61,0.00,,---,0.00,VWS V14.01,2013-01-06 13:26:00,
2013-01-06 08:31:00,15.4,4.4,29.56,North,0,0.0,0.0,61,0.00,,---,0.00,VWS V14.01,2013-01-06 13:31:00,
2013-01-06 08:36:00,15.4,4.4,29.56,North,0,0.0,0.0,61,0.00,,---,0.00,VWS V14.01,2013-01-06 13:36:00,
2013-01-06 08:41:00,15.6,4.6,29.56,North,0,0.0,0.0,61,0.00,,---,0.00,VWS V14.01,2013-01-06 13:41:00,
2013-01-06 08:46:00,15.8,4.8,29.56,North,0,0.0,0.0,61,0.00,,---,0.00,VWS V14.01,2013-01-06 13:46:00,
2013-01-06 08:51:00,16.0,4.9,29.56,North,0,0.0,0.0,61,0.00,,---,0.00,VWS V14.01,2013-01-06 13:51:00,
2013-01-06 08:56:00,16.3,5.3,29.56,North,0,0.0,0.0,61,0.00,,---,0.00,VWS V14.01,2013-01-06 13:56:00,
2013-01-06 09:01:00,16.7,5.2,29.56,North,0,0.0,0.0,60,0.00,,---,0.00,VWS V14.01,2013-01-06 14:01:00,
2013-01-06 09:07:00,17.1,5.6,29.56,North,0,0.0,0.0,60,0.00,,---,0.00,VWS V14.01,2013-01-06 14:07:00,
2013-01-06 09:12:00,17.6,6.1,29.56,North,0,0.0,0.0,60,0.00,,---,0.00,VWS V14.01,2013-01-06 14:12:00,
2013-01-06 09:18:00,17.8,5.9,29.56,North,0,0.0,0.0,59,0.00,,---,0.00,VWS V14.01,2013-01-06 14:18:00,
2013-01-06 09:23:00,18.1,6.2,29.56,North,0,0.0,0.0,59,0.00,,---,0.00,VWS V14.01,2013-01-06 14:23:00,
2013-01-06 09:28:00,18.3,6.4,29.56,North,0,0.0,0.0,59,0.00,,---,0.00,VWS V14.01,2013-01-06 14:28:00,
2013-01-06 09:33:00,18.7,6.7,29.56,North,0,0.0,0.0,59,0.00,,---,0.00,VWS V14.01,2013-01-06 14:33:00,
2013-01-06 09:38:00,19.2,7.2,29.53,North,0,0.0,0.0,59,0.00,,---,0.00,VWS V14.01,2013-01-06 14:38:00,
2013-01-06 09:43:00,19.6,7.2,29.53,North,0,0.0,0.0,58,0.00,,---,0.00,VWS V14.01,2013-01-06 14:43:00,
2013-01-06 09:50:00,19.9,7.6,29.53,North,0,0.0,0.0,58,0.00,,---,0.00,VWS V14.01,2013-01-06 14:50:00,
2013-01-06 09:56:00,20.3,7.5,29.53,North,0,0.0,0.0,57,0.00,,---,0.00,VWS V14.01,2013-01-06 14:56:00,
2013-01-06 10:01:00,20.8,8.0,29.53,North,0,0.0,0.0,57,0.00,,---,0.00,VWS V14.01,2013-01-06 15:01:00,
2013-01-06 10:06:00,21.2,8.4,29.53,North,0,0.0,0.0,57,0.00,,---,0.00,VWS V14.01,2013-01-06 15:06:00,
2013-01-06 10:12:00,21.7,8.5,29.53,North,0,0.0,0.0,56,0.00,,---,0.00,VWS V14.01,2013-01-06 15:12:00,
2013-01-06 10:17:00,22.5,9.1,29.53,North,0,0.0,0.0,56,0.00,,---,0.00,VWS V14.01,2013-01-06 15:17:00,
2013-01-06 10:22:00,23.0,9.7,29.53,North,0,0.0,0.0,56,0.00,,---,0.00,VWS V14.01,2013-01-06 15:22:00,
2013-01-06 10:27:00,23.5,9.8,29.53,North,0,0.0,0.0,55,0.00,,---,0.00,VWS V14.01,2013-01-06 15:27:00,
2013-01-06 10:32:00,23.7,9.9,29.53,North,0,0.0,0.0,55,0.00,,---,0.00,VWS V14.01,2013-01-06 15:32:00,
2013-01-06 10:37:00,24.1,9.9,29.53,North,0,0.0,0.0,54,0.00,,---,0.00,VWS V14.01,2013-01-06 15:37:00,
2013-01-06 10:42:00,24.4,10.2,29.50,North,0,0.0,0.0,54,0.00,,---,0.00,VWS V14.01,2013-01-06 15:42:00,
2013-01-06 10:47:00,24.8,10.5,29.50,North,0,0.0,0.0,54,0.00,,---,0.00,VWS V14.01,2013-01-06 15:47:00,
2013-01-06 10:52:00,25.0,10.3,29.50,North,0,0.0,0.0,53,0.00,,---,0.00,VWS V14.01,2013-01-06 15:52:00,
2013-01-06 10:57:00,25.0,10.3,29.50,North,0,0.0,0.0,53,0.00,,---,0.00,VWS V14.01,2013-01-06 15:57:00,
2013-01-06 11:02:00,25.0,10.3,29.50,North,0,0.0,0.0,53,0.00,,---,0.00,VWS V14.01,2013-01-06 16:02:00,
2013-01-06 11:07:00,25.2,10.4,29.50,North,0,0.0,0.0,53,0.00,,---,0.00,VWS V14.01,2013-01-06 16:07:00,
2013-01-06 11:12:00,25.3,10.6,29.50,North,0,0.0,0.0,53,0.00,,---,0.00,VWS V14.01,2013-01-06 16:12:00,
2013-01-06 11:17:00,25.7,10.9,29.50,North,0,0.0,0.0,53,0.00,,---,0.00,VWS V14.01,2013-01-06 16:17:00,
2013-01-06 11:22:00,26.2,11.4,29.50,North,0,0.0,0.0,53,0.00,,---,0.00,VWS V14.01,2013-01-06 16:22:00,
2013-01-06 11:28:00,26.6,11.4,29.47,North,0,0.0,0.0,52,0.00,,---,0.00,VWS V14.01,2013-01-06 16:28:00,
2013-01-06 11:33:00,27.0,11.7,29.47,North,0,0.0,0.0,52,0.00,,---,0.00,VWS V14.01,2013-01-06 16:33:00,
2013-01-06 11:38:00,27.3,12.0,29.47,North,0,0.0,0.0,52,0.00,,---,0.00,VWS V14.01,2013-01-06 16:38:00,
2013-01-06 11:44:00,27.7,12.4,29.47,North,0,0.0,0.0,52,0.00,,---,0.00,VWS V14.01,2013-01-06 16:44:00,
2013-01-06 11:49:00,28.0,12.3,29.47,North,0,0.0,0.0,51,0.00,,---,0.00,VWS V14.01,2013-01-06 16:49:00,
2013-01-06 11:54:00,28.0,12.3,29.47,North,0,0.0,0.0,51,0.00,,---,0.00,VWS V14.01,2013-01-06 16:54:00,
2013-01-06 11:59:00,28.6,12.8,29.47,North,0,0.0,0.0,51,0.00,,---,0.00,VWS V14.01,2013-01-06 16:59:00,
2013-01-06 12:05:00,28.4,12.6,29.47,North,0,0.0,0.0,51,0.00,,---,0.00,VWS V14.01,2013-01-06 17:05:00,
2013-01-06 12:11:00,28.6,12.3,29.47,North,0,0.0,0.0,50,0.00,,---,0.00,VWS V14.01,2013-01-06 17:11:00,
2013-01-06 12:16:00,28.6,12.3,29.47,North,0,0.0,0.0,50,0.00,,---,0.00,VWS V14.01,2013-01-06 17:16:00,
2013-01-06 12:21:00,28.6,11.9,29.47,North,0,0.0,0.0,49,0.00,,---,0.00,VWS V14.01,2013-01-06 17:21:00,
2013-01-06 12:26:00,28.9,12.6,29.47,North,0,0.0,0.0,50,0.00,,---,0.00,VWS V14.01,2013-01-06 17:26:00,
2013-01-06 12:31:00,29.5,13.1,29.47,North,0,0.0,0.0,50,0.00,,---,0.00,VWS V14.01,2013-01-06 17:31:00,
2013-01-06 12:36:00,30.2,13.8,29.47,North,0,0.0,0.0,50,0.00,,---,0.00,VWS V14.01,2013-01-06 17:36:00,
2013-01-06 12:42:00,30.6,13.7,29.44,North,0,0.0,0.0,49,0.00,,---,0.00,VWS V14.01,2013-01-06 17:42:00,
2013-01-06 12:47:00,30.9,13.6,29.44,North,0,0.0,0.0,48,0.00,,---,0.00,VWS V14.01,2013-01-06 17:47:00,
2013-01-06 12:52:00,30.6,13.2,29.44,North,0,0.0,0.0,48,0.00,,---,0.00,VWS V14.01,2013-01-06 17:52:00,
2013-01-06 12:57:00,30.4,12.6,29.44,North,0,0.0,0.0,47,0.00,,---,0.00,VWS V14.01,2013-01-06 17:57:00,
2013-01-06 13:02:00,30.0,12.7,29.44,North,0,0.0,0.0,48,0.00,,---,0.00,VWS V14.01,2013-01-06 18:02:00,
2013-01-06 13:07:00,30.0,12.7,29.44,North,0,0.0,0.0,48,0.00,,---,0.00,VWS V14.01,2013-01-06 18:07:00,
2013-01-06 13:12:00,29.7,12.4,29.44,North,0,0.0,0.0,48,0.00,,---,0.00,VWS V14.01,2013-01-06 18:12:00,
2013-01-06 13:17:00,29.7,12.4,29.44,North,0,0.0,0.0,48,0.00,,---,0.00,VWS V14.01,2013-01-06 18:17:00,
2013-01-06 13:22:00,29.8,13.0,29.44,North,0,0.0,0.0,49,0.00,,---,0.00,VWS V14.01,2013-01-06 18:22:00,
2013-01-06 13:28:00,30.0,13.2,29.44,North,0,0.0,0.0,49,0.00,,---,0.00,VWS V14.01,2013-01-06 18:28:00,
2013-01-06 13:33:00,30.4,13.1,29.44,North,0,0.0,0.0,48,0.00,,---,0.00,VWS V14.01,2013-01-06 18:33:00,
2013-01-06 13:39:00,30.7,13.4,29.44,North,0,0.0,0.0,48,0.00,,---,0.00,VWS V14.01,2013-01-06 18:39:00,
2013-01-06 13:44:00,30.7,13.4,29.44,North,0,0.0,0.0,48,0.00,,---,0.00,VWS V14.01,2013-01-06 18:44:00,
2013-01-06 13:49:00,30.7,12.9,29.44,North,0,0.0,0.0,47,0.00,,---,0.00,VWS V14.01,2013-01-06 18:49:00,
2013-01-06 13:55:00,30.7,12.9,29.44,North,0,0.0,0.0,47,0.00,,---,0.00,VWS V14.01,2013-01-06 18:55:00,
2013-01-06 14:00:00,30.9,13.6,29.44,North,0,0.0,0.0,48,0.00,,---,0.00,VWS V14.01,2013-01-06 19:00:00,
2013-01-06 14:05:00,31.1,13.2,29.44,North,0,0.0,0.0,47,0.00,,---,0.00,VWS V14.01,2013-01-06 19:05:00,
2013-01-06 14:10:00,31.5,13.6,29.44,North,0,0.0,0.0,47,0.00,,---,0.00,VWS V14.01,2013-01-06 19:10:00,
2013-01-06 14:16:00,31.8,13.9,29.44,North,0,0.0,0.0,47,0.00,,---,0.00,VWS V14.01,2013-01-06 19:16:00,
2013-01-06 14:21:00,32.4,14.4,29.44,North,0,0.0,0.0,47,0.00,,---,0.00,VWS V14.01,2013-01-06 19:21:00,
2013-01-06 14:27:00,32.2,14.2,29.44,North,0,0.0,0.0,47,0.00,,---,0.00,VWS V14.01,2013-01-06 19:27:00,
2013-01-06 14:32:00,32.0,14.1,29.44,North,0,0.0,0.0,47,0.00,,---,0.00,VWS V14.01,2013-01-06 19:32:00,
2013-01-06 14:37:00,32.2,14.2,29.44,North,0,0.0,0.0,47,0.00,,---,0.00,VWS V14.01,2013-01-06 19:37:00,
2013-01-06 14:42:00,32.2,14.2,29.44,North,0,0.0,0.0,47,0.00,,---,0.00,VWS V14.01,2013-01-06 19:42:00,
2013-01-06 14:48:00,31.8,13.9,29.44,North,0,0.0,0.0,47,0.00,,---,0.00,VWS V14.01,2013-01-06 19:48:00,
2013-01-06 14:53:00,31.5,13.6,29.44,North,0,0.0,0.0,47,0.00,,---,0.00,VWS V14.01,2013-01-06 19:53:00,
2013-01-06 14:59:00,31.3,13.4,29.44,North,0,0.0,0.0,47,0.00,,---,0.00,VWS V14.01,2013-01-06 19:59:00,
2013-01-06 15:04:00,31.1,13.2,29.44,North,0,0.0,0.0,47,0.00,,---,0.00,VWS V14.01,2013-01-06 20:04:00,
2013-01-06 15:09:00,30.7,12.4,29.44,North,0,0.0,0.0,46,0.00,,---,0.00,VWS V14.01,2013-01-06 20:09:00,
2013-01-06 15:11:00,30.6,12.7,29.44,North,0,0.0,0.0,47,0.00,,---,0.00,VWS V14.01,2013-01-06 20:11:00,
2013-01-06 15:15:00,30.2,12.4,29.44,North,0,0.0,0.0,47,0.00,,---,0.00,VWS V14.01,2013-01-06 20:15:00,
2013-01-06 15:20:00,29.8,12.1,29.44,North,0,0.0,0.0,47,0.00,,---,0.00,VWS V14.01,2013-01-06 20:20:00,
2013-01-06 15:25:00,29.5,11.8,29.44,North,0,0.0,0.0,47,0.00,,---,0.00,VWS V14.01,2013-01-06 20:25:00,
2013-01-06 15:30:00,29.1,11.4,29.44,North,0,0.0,0.0,47,0.00,,---,0.00,VWS V14.01,2013-01-06 20:30:00,
2013-01-06 15:36:00,28.9,11.7,29.44,North,0,0.0,0.0,48,0.00,,---,0.00,VWS V14.01,2013-01-06 20:36:00,
2013-01-06 15:40:00,28.8,11.6,29.44,North,0,0.0,0.0,48,0.00,,---,0.00,VWS V14.01,2013-01-06 20:40:00,
2013-01-06 15:45:00,28.2,11.1,29.44,North,0,0.0,0.0,48,0.00,,---,0.00,VWS V14.01,2013-01-06 20:45:00,
2013-01-06 15:51:00,27.9,11.2,29.44,North,0,0.0,0.0,49,0.00,,---,0.00,VWS V14.01,2013-01-06 20:51:00,
2013-01-06 15:56:00,27.9,11.2,29.44,North,0,0.0,0.0,49,0.00,,---,0.00,VWS V14.01,2013-01-06 20:56:00,
2013-01-06 16:01:00,27.9,11.6,29.44,North,0,0.0,0.0,50,0.00,,---,0.00,VWS V14.01,2013-01-06 21:01:00,
2013-01-06 16:07:00,27.7,11.5,29.44,North,0,0.0,0.0,50,0.00,,---,0.00,VWS V14.01,2013-01-06 21:07:00,
2013-01-06 16:09:00,27.7,11.5,29.41,North,0,0.0,0.0,50,0.00,,---,0.00,VWS V14.01,2013-01-06 21:09:00,
2013-01-06 16:14:00,27.5,11.8,29.41,North,0,0.0,0.0,51,0.00,,---,0.00,VWS V14.01,2013-01-06 21:14:00,
2013-01-06 16:20:00,27.5,11.8,29.41,North,0,0.0,0.0,51,0.00,,---,0.00,VWS V14.01,2013-01-06 21:20:00,
2013-01-06 16:25:00,27.3,11.6,29.41,North,0,0.0,0.0,51,0.00,,---,0.00,VWS V14.01,2013-01-06 21:25:00,
2013-01-06 16:30:00,27.1,11.4,29.41,North,0,0.0,0.0,51,0.00,,---,0.00,VWS V14.01,2013-01-06 21:30:00,
2013-01-06 16:36:00,27.0,11.3,29.41,North,0,0.0,0.0,51,0.00,,---,0.00,VWS V14.01,2013-01-06 21:36:00,
2013-01-06 16:41:00,27.0,11.3,29.44,North,0,0.0,0.0,51,0.00,,---,0.00,VWS V14.01,2013-01-06 21:41:00,
2013-01-06 16:46:00,27.0,11.3,29.44,North,0,0.0,0.0,51,0.00,,---,0.00,VWS V14.01,2013-01-06 21:46:00,
2013-01-06 16:51:00,27.0,11.7,29.44,North,0,0.0,0.0,52,0.00,,---,0.00,VWS V14.01,2013-01-06 21:51:00,
2013-01-06 16:57:00,26.8,11.5,29.44,North,0,0.0,0.0,52,0.00,,---,0.00,VWS V14.01,2013-01-06 21:57:00,
2013-01-06 17:03:00,26.8,11.5,29.44,North,0,0.0,0.0,52,0.00,,---,0.00,VWS V14.01,2013-01-06 22:03:00,
2013-01-06 17:08:00,26.8,11.5,29.44,North,0,0.0,0.0,52,0.00,,---,0.00,VWS V14.01,2013-01-06 22:08:00,
2013-01-06 17:13:00,26.6,11.8,29.44,North,0,0.0,0.0,53,0.00,,---,0.00,VWS V14.01,2013-01-06 22:13:00,
2013-01-06 17:18:00,26.6,11.8,29.44,North,0,0.0,0.0,53,0.00,,---,0.00,VWS V14.01,2013-01-06 22:18:00,
2013-01-06 17:23:00,26.2,11.9,29.44,North,0,0.0,0.0,54,0.00,,---,0.00,VWS V14.01,2013-01-06 22:23:00,
2013-01-06 17:28:00,26.1,11.3,29.44,North,0,0.0,0.0,53,0.00,,---,0.00,VWS V14.01,2013-01-06 22:28:00,
2013-01-06 17:34:00,25.9,11.1,29.44,North,0,0.0,0.0,53,0.00,,---,0.00,VWS V14.01,2013-01-06 22:34:00,
2013-01-06 17:38:00,25.7,10.9,29.44,North,0,0.0,0.0,53,0.00,,---,0.00,VWS V14.01,2013-01-06 22:38:00,
2013-01-06 17:44:00,25.3,11.0,29.44,North,0,0.0,0.0,54,0.00,,---,0.00,VWS V14.01,2013-01-06 22:44:00,
2013-01-06 17:49:00,25.2,10.9,29.44,North,0,0.0,0.0,54,0.00,,---,0.00,VWS V14.01,2013-01-06 22:49:00,
2013-01-06 17:54:00,25.0,10.7,29.44,North,0,0.0,0.0,54,0.00,,---,0.00,VWS V14.01,2013-01-06 22:54:00,
2013-01-06 17:59:00,24.8,10.9,29.44,North,0,0.0,0.0,55,0.00,,---,0.00,VWS V14.01,2013-01-06 22:59:00,
2013-01-06 18:04:00,24.6,10.8,29.44,North,0,0.0,0.0,55,0.00,,---,0.00,VWS V14.01,2013-01-06 23:04:00,
2013-01-06 18:09:00,24.4,10.6,29.44,North,0,0.0,0.0,55,0.00,,---,0.00,VWS V14.01,2013-01-06 23:09:00,
2013-01-06 18:14:00,24.4,10.6,29.44,North,0,0.0,0.0,55,0.00,,---,0.00,VWS V14.01,2013-01-06 23:14:00,
2013-01-06 18:19:00,24.3,10.4,29.44,North,0,0.0,0.0,55,0.00,,---,0.00,VWS V14.01,2013-01-06 23:19:00,
2013-01-06 18:24:00,24.1,10.3,29.44,North,0,0.0,0.0,55,0.00,,---,0.00,VWS V14.01,2013-01-06 23:24:00,
2013-01-06 18:29:00,23.9,10.5,29.44,North,0,0.0,0.0,56,0.00,,---,0.00,VWS V14.01,2013-01-06 23:29:00,
2013-01-06 18:35:00,23.5,10.2,29.44,North,0,0.0,0.0,56,0.00,,---,0.00,VWS V14.01,2013-01-06 23:35:00,
2013-01-06 18:40:00,23.5,10.2,29.44,North,0,0.0,0.0,56,0.00,,---,0.00,VWS V14.01,2013-01-06 23:40:00,
2013-01-06 18:46:00,23.4,10.4,29.44,North,0,0.0,0.0,57,0.00,,---,0.00,VWS V14.01,2013-01-06 23:46:00,
2013-01-06 18:51:00,23.2,10.2,29.44,North,0,0.0,0.0,57,0.00,,---,0.00,VWS V14.01,2013-01-06 23:51:00,
2013-01-06 18:56:00,23.0,10.4,29.44,North,0,0.0,0.0,58,0.00,,---,0.00,VWS V14.01,2013-01-06 23:56:00,
2013-01-06 19:01:00,22.8,10.3,29.44,North,0,0.0,0.0,58,0.00,,---,0.00,VWS V14.01,2013-01-07 00:01:00,
2013-01-06 19:07:00,22.8,10.3,29.44,North,0,0.0,0.0,58,0.00,,---,0.00,VWS V14.01,2013-01-07 00:07:00,
2013-01-06 19:11:00,22.8,10.3,29.44,North,0,0.0,0.0,58,0.00,,---,0.00,VWS V14.01,2013-01-07 00:11:00,
2013-01-06 19:17:00,22.5,10.3,29.44,North,0,0.0,0.0,59,0.00,,---,0.00,VWS V14.01,2013-01-07 00:17:00,
2013-01-06 19:22:00,22.3,10.1,29.44,North,0,0.0,0.0,59,0.00,,---,0.00,VWS V14.01,2013-01-07 00:22:00,
2013-01-06 19:27:00,22.1,10.4,29.44,North,0,0.0,0.0,60,0.00,,---,0.00,VWS V14.01,2013-01-07 00:27:00,
2013-01-06 19:32:00,22.1,10.4,29.44,North,0,0.0,0.0,60,0.00,,---,0.00,VWS V14.01,2013-01-07 00:32:00,
2013-01-06 19:37:00,22.1,10.4,29.44,North,0,0.0,0.0,60,0.00,,---,0.00,VWS V14.01,2013-01-07 00:37:00,
2013-01-06 19:43:00,22.1,10.7,29.47,North,0,0.0,0.0,61,0.00,,---,0.00,VWS V14.01,2013-01-07 00:43:00,
2013-01-06 19:48:00,21.9,10.2,29.47,North,0,0.0,0.0,60,0.00,,---,0.00,VWS V14.01,2013-01-07 00:48:00,
2013-01-06 19:53:00,21.9,10.6,29.47,North,0,0.0,0.0,61,0.00,,---,0.00,VWS V14.01,2013-01-07 00:53:00,
2013-01-06 19:58:00,22.1,10.7,29.47,North,0,0.0,0.0,61,0.00,,---,0.00,VWS V14.01,2013-01-07 00:58:00,
2013-01-06 20:03:00,22.1,11.1,29.47,North,0,0.0,0.0,62,0.00,,---,0.00,VWS V14.01,2013-01-07 01:03:00,
2013-01-06 20:08:00,21.9,10.9,29.47,North,0,0.0,0.0,62,0.00,,---,0.00,VWS V14.01,2013-01-07 01:08:00,
2013-01-06 20:13:00,21.9,10.9,29.47,North,0,0.0,0.0,62,0.00,,---,0.00,VWS V14.01,2013-01-07 01:13:00,
2013-01-06 20:18:00,22.1,11.1,29.47,North,0,0.0,0.0,62,0.00,,---,0.00,VWS V14.01,2013-01-07 01:18:00,
2013-01-06 20:23:00,22.1,11.1,29.44,North,0,0.0,0.0,62,0.00,,---,0.00,VWS V14.01,2013-01-07 01:23:00,
2013-01-06 20:28:00,22.3,11.6,29.44,North,0,0.0,0.0,63,0.00,,---,0.00,VWS V14.01,2013-01-07 01:28:00,
2013-01-06 20:34:00,22.1,11.4,29.44,North,0,0.0,0.0,63,0.00,,---,0.00,VWS V14.01,2013-01-07 01:34:00,
2013-01-06 20:39:00,21.9,11.3,29.44,North,0,0.0,0.0,63,0.00,,---,0.00,VWS V14.01,2013-01-07 01:39:00,
2013-01-06 20:45:00,21.7,11.1,29.44,North,0,0.0,0.0,63,0.00,,---,0.00,VWS V14.01,2013-01-07 01:45:00,
2013-01-06 20:50:00,21.6,10.9,29.44,North,0,0.0,0.0,63,0.00,,---,0.00,VWS V14.01,2013-01-07 01:50:00,
2013-01-06 20:55:00,21.2,10.9,29.44,North,0,0.0,0.0,64,0.00,,---,0.00,VWS V14.01,2013-01-07 01:55:00,
2013-01-06 21:00:00,21.2,10.9,29.44,North,0,0.0,0.0,64,0.00,,---,0.00,VWS V14.01,2013-01-07 02:00:00,
2013-01-06 21:05:00,20.8,10.6,29.44,North,0,0.0,0.0,64,0.00,,---,0.00,VWS V14.01,2013-01-07 02:05:00,
2013-01-06 21:10:00,20.7,10.8,29.44,North,0,0.0,0.0,65,0.00,,---,0.00,VWS V14.01,2013-01-07 02:10:00,
2013-01-06 21:15:00,20.5,10.6,29.44,North,0,0.0,0.0,65,0.00,,---,0.00,VWS V14.01,2013-01-07 02:15:00,
2013-01-06 21:22:00,20.5,10.6,29.44,North,0,0.0,0.0,65,0.00,,---,0.00,VWS V14.01,2013-01-07 02:22:00,
2013-01-06 21:27:00,19.9,10.1,29.44,North,0,0.0,0.0,65,0.00,,---,0.00,VWS V14.01,2013-01-07 02:27:00,
2013-01-06 21:32:00,19.9,10.4,29.44,North,0,0.0,0.0,66,0.00,,---,0.00,VWS V14.01,2013-01-07 02:32:00,
2013-01-06 21:37:00,19.9,10.4,29.44,North,0,0.0,0.0,66,0.00,,---,0.00,VWS V14.01,2013-01-07 02:37:00,
2013-01-06 21:42:00,19.4,9.9,29.47,North,0,0.0,0.0,66,0.00,,---,0.00,VWS V14.01,2013-01-07 02:42:00,
2013-01-06 21:47:00,19.4,10.2,29.47,North,0,0.0,0.0,67,0.00,,---,0.00,VWS V14.01,2013-01-07 02:47:00,
2013-01-06 21:52:00,19.0,9.9,29.47,North,0,0.0,0.0,67,0.00,,---,0.00,VWS V14.01,2013-01-07 02:52:00,
2013-01-06 21:57:00,18.7,9.9,29.44,North,0,0.0,0.0,68,0.00,,---,0.00,VWS V14.01,2013-01-07 02:57:00,
2013-01-06 22:02:00,18.3,9.5,29.44,North,0,0.0,0.0,68,0.00,,---,0.00,VWS V14.01,2013-01-07 03:02:00,
2013-01-06 22:08:00,18.3,9.5,29.44,North,0,0.0,0.0,68,0.00,,---,0.00,VWS V14.01,2013-01-07 03:08:00,
2013-01-06 22:13:00,18.1,9.7,29.44,North,0,0.0,0.0,69,0.00,,---,0.00,VWS V14.01,2013-01-07 03:13:00,
2013-01-06 22:18:00,18.0,9.5,29.44,North,0,0.0,0.0,69,0.00,,---,0.00,VWS V14.01,2013-01-07 03:18:00,
2013-01-06 22:23:00,18.0,9.5,29.44,North,0,0.0,0.0,69,0.00,,---,0.00,VWS V14.01,2013-01-07 03:23:00,
2013-01-06 22:28:00,17.4,9.0,29.44,North,0,0.0,0.0,69,0.00,,---,0.00,VWS V14.01,2013-01-07 03:28:00,
2013-01-06 22:34:00,17.1,8.7,29.44,North,0,0.0,0.0,69,0.00,,---,0.00,VWS V14.01,2013-01-07 03:34:00,
2013-01-06 22:39:00,16.9,8.5,29.44,North,0,0.0,0.0,69,0.00,,---,0.00,VWS V14.01,2013-01-07 03:39:00,
2013-01-06 22:44:00,17.1,9.3,29.44,North,0,0.0,0.0,71,0.00,,---,0.00,VWS V14.01,2013-01-07 03:44:00,
2013-01-06 22:49:00,16.9,9.1,29.44,North,0,0.0,0.0,71,0.00,,---,0.00,VWS V14.01,2013-01-07 03:49:00,
2013-01-06 22:56:00,17.2,9.5,29.44,North,0,0.0,0.0,71,0.00,,---,0.00,VWS V14.01,2013-01-07 03:56:00,
2013-01-06 23:00:00,17.4,9.6,29.44,North,0,0.0,0.0,71,0.00,,---,0.00,VWS V14.01,2013-01-07 04:00:00,
2013-01-06 23:05:00,17.6,9.8,29.44,North,0,0.0,0.0,71,0.00,,---,0.00,VWS V14.01,2013-01-07 04:05:00,
2013-01-06 23:11:00,17.6,9.8,29.44,North,0,0.0,0.0,71,0.00,,---,0.00,VWS V14.01,2013-01-07 04:11:00,
2013-01-06 23:16:00,17.6,9.8,29.44,North,0,0.0,0.0,71,0.00,,---,0.00,VWS V14.01,2013-01-07 04:16:00,
2013-01-06 23:21:00,17.8,10.0,29.44,North,0,0.0,0.0,71,0.00,,---,0.00,VWS V14.01,2013-01-07 04:21:00,
2013-01-06 23:26:00,18.1,10.3,29.47,North,0,0.0,0.0,71,0.00,,---,0.00,VWS V14.01,2013-01-07 04:26:00,
2013-01-06 23:32:00,18.1,10.6,29.47,North,0,0.0,0.0,72,0.00,,---,0.00,VWS V14.01,2013-01-07 04:32:00,
2013-01-06 23:36:00,18.1,10.3,29.47,North,0,0.0,0.0,71,0.00,,---,0.00,VWS V14.01,2013-01-07 04:36:00,
2013-01-06 23:42:00,18.5,11.0,29.47,North,0,0.0,0.0,72,0.00,,---,0.00,VWS V14.01,2013-01-07 04:42:00,
2013-01-06 23:47:00,18.5,10.7,29.47,North,0,0.0,0.0,71,0.00,,---,0.00,VWS V14.01,2013-01-07 04:47:00,
2013-01-06 23:52:00,18.7,11.2,29.47,North,0,0.0,0.0,72,0.00,,---,0.00,VWS V14.01,2013-01-07 04:52:00,
2013-01-06 23:58:00,18.9,11.6,29.47,North,0,0.0,0.0,73,0.00,,---,0.00,VWS V14.01,2013-01-07 04:58:00,